Location: Newark
(48.3453°N, 0.5589°E)
Time: 12:44:56
(UTC+00:00)

A-11 Canister half - Pass Details

Date: 09 December 2019
Orbit: 1516 x 1683 km, 47.2° (Epoch: 18 January)

Event Time Altitude Azimuth Distance (km) Brightness Sun altitude
Rises 10:25:15 0° 188° (S) 4,714 12.7 16.4°
Reaches altitude 10° 10:29:12 10° 174° (S) 3,761 13.0 16.6°
Maximum altitude 10:35:53 22° 129° (SE) 2,984 11.7 16.9°
Drops below altitude 10° 10:42:43 10° 84° (E) 3,868 11.3 17.3°
Sets 10:46:49 0° 70° (ENE) 4,884 11.6 17.5°
